| time (UTC) | temp F | wind direction | speed MPH | gust MPH | rain 1hr in | rain 24hr in | rain mn in | humidity % | barometer mb |
| 20260503173545 | 63 | 0 | 0.0 | 0.0 | 0.00 | 0.01 | 0.00 | 72 | 1011.5 |
| 20260503173057 | 62 | 0 | 0.0 | 0.0 | 0.00 | 0.01 | 0.00 | 71 | 1011.5 |
| 20260503172544 | 62 | 0 | 0.0 | 0.0 | 0.00 | 0.01 | 0.00 | 72 | 1011.6 |
| 20260503172044 | 62 | 0 | 0.0 | 0.0 | 0.00 | 0.01 | 0.00 | 71 | 1011.6 |
| 20260503171552 | 62 | 0 | 0.0 | 0.0 | 0.00 | 0.01 | 0.00 | 71 | 1011.6 |
| 20260503171044 | 62 | 0 | 0.0 | 0.0 | 0.00 | 0.01 | 0.00 | 71 | 1011.7 |
| 20260503170544 | 62 | 0 | 0.0 | 0.0 | 0.00 | 0.01 | 0.00 | 72 | 1011.6 |
| 20260503150544 | 63 | 0 | 0.0 | 0.0 | 0.00 | 0.04 | 0.00 | 68 | 1011.8 |
| 20260503131047 | 62 | 0 | 0.0 | 1.0 | 0.00 | 0.04 | 0.00 | 69 | 1012.1 |
| 20260503130544 | 62 | 0 | 0.0 | 1.0 | 0.00 | 0.04 | 0.00 | 69 | 1012.0 |
| 20260503110547 | 58 | 0 | 0.0 | 0.0 | 0.00 | 0.04 | 0.00 | 77 | 1012.4 |
| 20260503081553 | 54 | 0 | 0.0 | 0.0 | 0.00 | 0.04 | 0.00 | 87 | 1012.5 |
| 20260503081044 | 54 | 0 | 0.0 | 0.0 | 0.00 | 0.04 | 0.00 | 86 | 1012.5 |
| 20260503080544 | 55 | 0 | 0.0 | 0.0 | 0.00 | 0.04 | 0.00 | 86 | 1012.4 |
| 20260503072544 | 54 | 0 | 0.0 | 0.0 | 0.00 | 0.04 | 0.00 | 90 | 1012.3 |
| 20260503072044 | 54 | 0 | 0.0 | 0.0 | 0.00 | 0.04 | 0.00 | 91 | 1012.2 |
| 20260503071600 | 54 | 0 | 0.0 | 0.0 | 0.00 | 0.04 | 0.00 | 91 | 1012.2 |
| 20260503071044 | 54 | 0 | 0.0 | 0.0 | 0.00 | 0.04 | 0.00 | 91 | 1012.1 |
| 20260503070543 | 54 | 0 | 0.0 | 0.0 | 0.00 | 0.04 | 0.00 | 92 | 1012.1 |
| 20260503060107 | 53 | 0 | 0.0 | 1.0 | 0.00 | 0.04 | 0.00 | 93 | 1012.0 |
| 20260503055045 | 53 | 0 | 0.0 | 0.0 | 0.00 | 0.04 | 0.00 | 93 | 1011.9 |
| 20260503054549 | 53 | 0 | 0.0 | 0.0 | 0.00 | 0.04 | 0.00 | 93 | 1012.0 |
| 20260503054043 | 52 | 0 | 0.0 | 0.0 | 0.00 | 0.04 | 0.00 | 93 | 1012.0 |
| 20260503053543 | 52 | 0 | 0.0 | 0.0 | 0.00 | 0.04 | 0.00 | 93 | 1012.0 |
| 20260503053053 | 53 | 0 | 0.0 | 0.0 | 0.00 | 0.04 | 0.00 | 93 | 1012.0 |
| 20260503052543 | 53 | 0 | 0.0 | 0.0 | 0.00 | 0.04 | 0.00 | 92 | 1012.0 |
| 20260503052045 | 53 | 0 | 0.0 | 0.0 | 0.00 | 0.04 | 0.00 | 93 | 1011.9 |
| 20260503051553 | 53 | 0 | 0.0 | 0.0 | 0.00 | 0.04 | 0.00 | 92 | 1011.9 |
| 20260503051043 | 53 | 0 | 0.0 | 0.0 | 0.00 | 0.04 | 0.00 | 92 | 1012.0 |
| 20260503050543 | 53 | 0 | 0.0 | 0.0 | 0.00 | 0.04 | 0.00 | 92 | 1012.0 |
| 20260503050055 | 53 | 0 | 0.0 | 0.0 | 0.00 | 0.04 | 0.00 | 92 | 1012.0 |
| 20260503045544 | 53 | 0 | 0.0 | 0.0 | 0.00 | 0.04 | 0.00 | 92 | 1011.9 |
| 20260503045043 | 53 | 0 | 0.0 | 0.0 | 0.00 | 0.04 | 0.00 | 92 | 1011.7 |
| 20260503044551 | 53 | 0 | 0.0 | 0.0 | 0.00 | 0.04 | 0.00 | 92 | 1011.8 |
| 20260503044046 | 53 | 0 | 0.0 | 0.0 | 0.00 | 0.04 | 0.00 | 92 | 1011.8 |
| 20260503043543 | 53 | 0 | 0.0 | 0.0 | 0.00 | 0.04 | 0.00 | 92 | 1011.8 |
| 20260503043055 | 53 | 0 | 0.0 | 0.0 | 0.00 | 0.04 | 0.00 | 92 | 1011.8 |
| 20260503042543 | 53 | 0.0 | 0.0 | 0.00 | 0.04 | 0.00 | 93 | 1011.8 | |
| 20260503042043 | 53 | 0.0 | 0.0 | 0.00 | 0.04 | 0.00 | 93 | 1011.7 | |
| 20260503041550 | 53 | 0.0 | 0.0 | 0.00 | 0.04 | 0.00 | 93 | 1011.8 | |
| 20260503041044 | 53 | 0 | 0.0 | 0.0 | 0.00 | 0.04 | 0.00 | 93 | 1011.9 |
| 20260503040543 | 53 | 0 | 0.0 | 0.0 | 0.00 | 0.04 | 0.00 | 93 | 1011.9 |
| 20260503040047 | 53 | 0 | 0.0 | 0.0 | 0.00 | 0.04 | 0.00 | 93 | 1011.9 |
| 20260503035543 | 53 | 0 | 0.0 | 0.0 | 0.00 | 0.04 | 0.00 | 93 | 1011.9 |
| 20260503035043 | 53 | 0 | 0.0 | 0.0 | 0.00 | 0.04 | 0.00 | 93 | 1011.8 |
| 20260503034551 | 0 | 0 | 0.0 | 0.0 | 0.00 | 0.04 | 0.00 | 93 | 1011.9 |
| 20260503034043 | 0 | 0 | 0.0 | 0.0 | 0.00 | 0.04 | 0.00 | 93 | 1011.9 |
| 20260503033546 | 0 | 0 | 0.0 | 0.0 | 0.00 | 0.04 | 0.00 | 93 | 1011.9 |
| 20260503033104 | 0 | 0.0 | 0.0 | 0.00 | 0.04 | 0.00 | 1012.0 | ||
| 20260503032545 | 0 | 0.0 | 0.0 | 0.00 | 0.04 | 0.00 | 1012.0 | ||
| 20260503032044 | 0 | 0.0 | 0.0 | 0.00 | 0.04 | 0.00 | 1011.9 | ||
| 20260503031545 | 0 | 0.0 | 0.0 | 0.00 | 0.04 | 0.00 | 1012.0 | ||
| 20260503031043 | 0 | 0.0 | 0.0 | 0.00 | 0.04 | 0.00 | 1012.0 | ||
| 20260503030545 | 0 | 0.0 | 0.0 | 0.00 | 0.04 | 0.00 | 1012.0 | ||
| 20260503030052 | 53 | 0.0 | 0.0 | 0.00 | 0.04 | 0.00 | 92 | 1011.9 | |
| 20260503025547 | 53 | 0 | 0.0 | 0.0 | 0.00 | 0.04 | 0.00 | 92 | 1011.9 |
| 20260503025044 | 53 | 0 | 0.0 | 0.0 | 0.00 | 0.04 | 0.00 | 92 | 1011.9 |
| 20260503024552 | 54 | 0.0 | 0.0 | 0.00 | 0.04 | 0.00 | 92 | 1011.9 | |
| 20260503024043 | 54 | 0 | 0.0 | 0.0 | 0.00 | 0.04 | 0.00 | 92 | 1012.0 |
| 20260503023546 | 54 | 0 | 0.0 | 0.0 | 0.00 | 0.04 | 0.00 | 92 | 1011.9 |
| 20260503023100 | 54 | 0.0 | 0.0 | 0.00 | 0.04 | 0.00 | 92 | 1012.0 | |
| 20260503022544 | 54 | 0 | 0.0 | 0.0 | 0.00 | 0.04 | 0.00 | 92 | 1011.9 |
| 20260503022043 | 54 | 0.0 | 0.0 | 0.00 | 0.04 | 0.00 | 93 | 1012.0 | |
| 20260503021600 | 54 | 0 | 0.0 | 0.0 | 0.00 | 0.04 | 0.00 | 93 | 1012.1 |
| 20260503021043 | 54 | 0 | 0.0 | 0.0 | 0.00 | 0.04 | 0.00 | 93 | 1012.0 |
| 20260503020543 | 54 | 0 | 0.0 | 0.0 | 0.00 | 0.04 | 0.00 | 93 | 1012.1 |
| 20260503020049 | 54 | 0 | 0.0 | 0.0 | 0.00 | 0.04 | 0.00 | 93 | 1012.2 |
| 20260503015542 | 54 | 0 | 0.0 | 0.0 | 0.00 | 0.04 | 0.00 | 93 | 1012.3 |
| 20260503015042 | 54 | 0 | 0.0 | 0.0 | 0.00 | 0.04 | 0.00 | 93 | 1012.4 |
| 20260503014552 | 54 | 0 | 0.0 | 0.0 | 0.00 | 0.04 | 0.00 | 93 | 1012.3 |
| 20260503014047 | 54 | 0 | 0.0 | 0.0 | 0.00 | 0.04 | 0.00 | 93 | 1012.4 |
| 20260503013544 | 54 | 0 | 0.0 | 0.0 | 0.00 | 0.04 | 0.00 | 93 | 1012.4 |
| 20260503013058 | 54 | 0 | 0.0 | 0.0 | 0.00 | 0.04 | 0.00 | 93 | 1012.4 |
| 20260503012544 | 54 | 0 | 0.0 | 0.0 | 0.00 | 0.04 | 0.00 | 93 | 1012.5 |
| 20260503012043 | 54 | 0.0 | 1.0 | 0.00 | 0.04 | 0.00 | 93 | 1012.5 | |
| 20260503011601 | 54 | 0 | 0.0 | 1.0 | 0.00 | 0.04 | 0.00 | 93 | 1012.5 |
| 20260503011045 | 54 | 0 | 0.0 | 0.0 | 0.00 | 0.04 | 0.00 | 93 | 1012.5 |
| 20260503010543 | 54 | 0 | 0.0 | 0.0 | 0.00 | 0.04 | 0.00 | 93 | 1012.7 |
| 20260503010056 | 54 | 0 | 0.0 | 1.0 | 0.00 | 0.04 | 0.00 | 93 | 1012.8 |
| 20260503005545 | 54 | 0 | 0.0 | 1.0 | 0.00 | 0.04 | 0.00 | 93 | 1012.8 |
| 20260503005042 | 54 | 0 | 0.0 | 0.0 | 0.00 | 0.04 | 0.00 | 93 | 1012.9 |
| 20260503004615 | 54 | 0 | 0.0 | 0.0 | 0.00 | 0.04 | 0.00 | 93 | 1012.9 |
| 20260503004042 | 54 | 0 | 0.0 | 0.0 | 0.00 | 0.04 | 0.00 | 93 | 1013.0 |
| 20260503003543 | 55 | 0 | 0.0 | 0.0 | 0.00 | 0.04 | 0.00 | 93 | 1013.0 |
| 20260503003059 | 55 | 0 | 0.0 | 0.0 | 0.00 | 0.04 | 0.00 | 93 | 1013.0 |
| 20260503002543 | 55 | 0 | 0.0 | 0.0 | 0.00 | 0.04 | 0.00 | 93 | 1013.1 |
| 20260503002044 | 54 | 0.0 | 0.0 | 0.00 | 0.04 | 0.00 | 93 | 1013.1 | |
| 20260503001552 | 54 | 0 | 0.0 | 0.0 | 0.00 | 0.04 | 0.00 | 93 | 1013.2 |
| 20260503001044 | 55 | 0 | 0.0 | 0.0 | 0.00 | 0.04 | 0.00 | 93 | 1013.1 |
| 20260503000543 | 55 | 0 | 0.0 | 0.0 | 0.00 | 0.04 | 0.00 | 93 | 1013.2 |
| 20260503000100 | 55 | 0 | 0.0 | 0.0 | 0.00 | 0.04 | 0.00 | 93 | 1013.1 |
| 20260502235543 | 54 | 0 | 0.0 | 0.0 | 0.00 | 0.04 | 0.00 | 93 | 1013.2 |
| 20260502235043 | 54 | 0 | 0.0 | 0.0 | 0.00 | 0.04 | 0.00 | 93 | 1013.3 |
| 20260502234549 | 54 | 0 | 0.0 | 0.0 | 0.00 | 0.04 | 0.00 | 93 | 1013.3 |
| 20260502234043 | 54 | 0 | 0.0 | 0.0 | 0.00 | 0.04 | 0.00 | 93 | 1013.3 |
| 20260502233544 | 54 | 0 | 0.0 | 0.0 | 0.00 | 0.04 | 0.00 | 93 | 1013.2 |
| 20260502233056 | 54 | 0 | 0.0 | 0.0 | 0.00 | 0.04 | 0.00 | 93 | 1013.2 |
| 20260502232543 | 54 | 0 | 0.0 | 0.0 | 0.00 | 0.04 | 0.00 | 93 | 1013.2 |
| 20260502232043 | 54 | 0 | 0.0 | 0.0 | 0.00 | 0.04 | 0.00 | 93 | 1013.2 |
| 20260502231552 | 55 | 0 | 0.0 | 0.0 | 0.00 | 0.04 | 0.00 | 93 | 1013.2 |
| 20260502231043 | 55 | 0 | 0.0 | 0.0 | 0.00 | 0.04 | 0.00 | 93 | 1013.2 |
| 20260502230543 | 55 | 0 | 0.0 | 0.0 | 0.00 | 0.04 | 0.00 | 93 | 1013.4 |
| 20260502230051 | 55 | 0 | 0.0 | 0.0 | 0.00 | 0.04 | 0.00 | 93 | 1013.5 |
| 20260502225542 | 55 | 0 | 0.0 | 0.0 | 0.00 | 0.04 | 0.04 | 93 | 1013.3 |
| 20260502225043 | 55 | 0 | 0.0 | 0.0 | 0.00 | 0.04 | 0.04 | 93 | 1013.3 |
| 20260502224550 | 55 | 0 | 0.0 | 0.0 | 0.00 | 0.04 | 0.04 | 93 | 1013.4 |
| 20260502224043 | 55 | 0 | 0.0 | 0.0 | 0.00 | 0.04 | 0.04 | 93 | 1013.5 |
| 20260502223543 | 55 | 0 | 0.0 | 0.0 | 0.00 | 0.04 | 0.04 | 93 | 1013.5 |
| 20260502223050 | 55 | 0 | 0.0 | 1.0 | 0.00 | 0.04 | 0.04 | 93 | 1013.4 |
| 20260502222545 | 56 | 0 | 0.0 | 2.0 | 0.00 | 0.04 | 0.04 | 93 | 1013.4 |
| 20260502222045 | 56 | 0 | 0.0 | 5.0 | 0.00 | 0.04 | 0.04 | 93 | 1013.3 |
| 20260502221552 | 56 | 169 | 1.0 | 6.0 | 0.00 | 0.04 | 0.04 | 93 | 1013.3 |
| 20260502221043 | 56 | 0 | 2.0 | 6.0 | 0.00 | 0.04 | 0.04 | 93 | 1013.4 |
| 20260502220543 | 56 | 171 | 1.0 | 6.0 | 0.00 | 0.04 | 0.04 | 93 | 1013.3 |
| 20260502220053 | 56 | 163 | 1.0 | 6.0 | 0.00 | 0.04 | 0.04 | 93 | 1013.4 |
| 20260502215543 | 56 | 148 | 3.0 | 6.0 | 0.00 | 0.04 | 0.04 | 93 | 1013.4 |
| 20260502215042 | 56 | 155 | 1.0 | 5.0 | 0.00 | 0.04 | 0.04 | 93 | 1013.4 |
| 20260502214552 | 56 | 0 | 1.0 | 5.0 | 0.00 | 0.04 | 0.04 | 93 | 1013.3 |
| 20260502214043 | 56 | 155 | 1.0 | 5.0 | 0.00 | 0.04 | 0.04 | 93 | 1013.3 |
| 20260502213543 | 56 | 155 | 0.0 | 5.0 | 0.00 | 0.04 | 0.04 | 92 | 1013.4 |
| 20260502213047 | 56 | 155 | 1.0 | 5.0 | 0.00 | 0.04 | 0.04 | 92 | 1013.5 |
| 20260502212543 | 56 | 156 | 2.0 | 5.0 | 0.00 | 0.04 | 0.04 | 92 | 1013.5 |
| 20260502212043 | 56 | 148 | 1.0 | 3.0 | 0.00 | 0.04 | 0.04 | 92 | 1013.7 |
| 20260502211555 | 56 | 142 | 1.0 | 3.0 | 0.00 | 0.04 | 0.04 | 92 | 1013.5 |
| 20260502211046 | 56 | 0 | 1.0 | 2.0 | 0.00 | 0.04 | 0.04 | 92 | 1013.6 |
| 20260502210546 | 57 | 0.0 | 2.0 | 0.00 | 0.04 | 0.04 | 92 | 1013.7 | |
| 20260502210049 | 57 | 142 | 0.0 | 3.0 | 0.00 | 0.04 | 0.04 | 92 | 1013.6 |
| 20260502205542 | 57 | 0 | 1.0 | 4.0 | 0.00 | 0.04 | 0.04 | 92 | 1013.6 |
| 20260502205043 | 57 | 0 | 1.0 | 4.0 | 0.00 | 0.04 | 0.04 | 92 | 1013.6 |
| 20260502204548 | 57 | 0 | 1.0 | 4.0 | 0.00 | 0.04 | 0.04 | 92 | 1013.7 |
| 20260502204043 | 57 | 146 | 1.0 | 5.0 | 0.00 | 0.04 | 0.04 | 92 | 1013.8 |
| 20260502203543 | 57 | 146 | 2.0 | 5.0 | 0.00 | 0.04 | 0.04 | 92 | 1013.8 |
| 20260502203050 | 57 | 156 | 0.0 | 1.0 | 0.00 | 0.04 | 0.04 | 92 | 1013.8 |
| 20260502202543 | 57 | 0.0 | 0.0 | 0.00 | 0.04 | 0.04 | 92 | 1013.8 | |
| 20260502202043 | 57 | 0.0 | 2.0 | 0.00 | 0.04 | 0.04 | 92 | 1013.8 | |
| 20260502201552 | 57 | 0 | 0.0 | 2.0 | 0.00 | 0.04 | 0.04 | 92 | 1013.7 |
| 20260502201043 | 57 | 0 | 0.0 | 2.0 | 0.00 | 0.04 | 0.04 | 91 | 1013.8 |
| 20260502200544 | 57 | 0 | 1.0 | 5.0 | 0.00 | 0.04 | 0.04 | 91 | 1013.9 |
| 20260502200055 | 57 | 156 | 1.0 | 5.0 | 0.00 | 0.04 | 0.04 | 91 | 1013.8 |
| 20260502195542 | 57 | 162 | 2.0 | 5.0 | 0.00 | 0.04 | 0.04 | 91 | 1013.7 |
| 20260502195042 | 57 | 142 | 1.0 | 4.0 | 0.00 | 0.04 | 0.04 | 91 | 1013.7 |
| 20260502194548 | 57 | 145 | 1.0 | 4.0 | 0.00 | 0.04 | 0.04 | 91 | 1013.8 |
| 20260502194045 | 57 | 144 | 1.0 | 4.0 | 0.00 | 0.04 | 0.04 | 91 | 1013.7 |
| 20260502193543 | 57 | 0 | 1.0 | 3.0 | 0.00 | 0.04 | 0.04 | 91 | 1013.8 |
| 20260502193048 | 57 | 150 | 1.0 | 5.0 | 0.00 | 0.04 | 0.04 | 91 | 1013.9 |
| 20260502192542 | 57 | 150 | 2.0 | 5.0 | 0.00 | 0.04 | 0.04 | 91 | 1013.7 |
| 20260502192043 | 57 | 142 | 1.0 | 4.0 | 0.00 | 0.04 | 0.04 | 91 | 1013.7 |
| 20260502191558 | 57 | 142 | 1.0 | 4.0 | 0.00 | 0.04 | 0.04 | 91 | 1013.7 |
| 20260502191044 | 57 | 146 | 1.0 | 3.0 | 0.00 | 0.04 | 0.04 | 91 | 1013.7 |
| 20260502190543 | 57 | 0 | 1.0 | 3.0 | 0.00 | 0.04 | 0.04 | 91 | 1013.7 |
| 20260502190049 | 0 | 0.0 | 0.0 | 0.00 | 0.04 | 0.04 | 1013.8 | ||
| 20260502185546 | 57 | 0.0 | 3.0 | 0.00 | 0.04 | 0.04 | 91 | 1013.9 | |
| 20260502185043 | 57 | 148 | 0.0 | 4.0 | 0.00 | 0.04 | 0.04 | 91 | 1013.8 |
| 20260502184550 | 57 | 147 | 1.0 | 4.0 | 0.00 | 0.04 | 0.04 | 91 | 1013.9 |
| 20260502184043 | 57 | 0 | 2.0 | 3.0 | 0.00 | 0.04 | 0.04 | 91 | 1013.8 |
| 20260502183543 | 57 | 0 | 0.0 | 3.0 | 0.00 | 0.04 | 0.04 | 91 | 1013.9 |
| 20260502183051 | 0 | 1.0 | 2.0 | 0.00 | 0.04 | 0.04 | 90 | 1013.8 | |
| 20260502182543 | 0 | 135 | 2.0 | 2.0 | 0.00 | 0.04 | 0.04 | 90 | 1013.9 |
| 20260502182042 | 0 | 0.0 | 0.0 | 0.00 | 0.04 | 0.04 | 1014.0 | ||
| 20260502181553 | 0 | 0.0 | 0.0 | 0.00 | 0.04 | 0.04 | 1014.1 | ||
| 20260502181042 | 0 | 0.0 | 0.0 | 0.00 | 0.04 | 0.04 | 1014.2 | ||
| 20260502180542 | 58 | 0.0 | 1.0 | 0.00 | 0.04 | 0.04 | 90 | 1014.1 |